Port Angeles, WA

1:16 AM PST on February 20, 2017 (GMT -0800)
Fairchild International

Weather History for KCLM - April, 2014

Change the Weather History Date:

Tuesday, April 29, 2014

  Actual Average Record
Temperature  
Mean Temperature 53 °F -  
Max Temperature 63 °F 58 °F 71 °F (1976)
Min Temperature 43 °F 41 °F 29 °F (1986)
Degree Days  
Heating Degree Days 12    
Growing Degree Days 3 (Base 50)    
Moisture  
Dew Point 42 °F    
Average Humidity 69    
Maximum Humidity 87    
Minimum Humidity 41    
Precipitation  
Precipitation 0.00 in - - ()
Sea Level Pressure  
Sea Level Pressure 30.45 in    
Wind  
Wind Speed 3 mph (SE)    
Max Wind Speed 8 mph    
Max Gust Speed -    
Visibility 10 miles    
Events      
Averages and records for this station are not official NWS values.
T = Trace of Precipitation, MM = Missing Value Source: NWS Daily Summary

Daily Weather History Graph

Daily Weather History Graph

Search for Another Location

Airport or City:

Trip Planner

Search our weather history database for the weather conditions in past years. The results will help you decide how hot, cold, wet, or windy it might be!

Date:

Astronomy

Apr. 29, 2014 Rise Set
Actual Time 5:58 AM PDT 8:24 PM PDT
Civil Twilight 5:24 AM PDT 8:59 PM PDT
Nautical Twilight 4:40 AM PDT 9:43 PM PDT
Astronomical Twilight 3:51 AM PDT 10:33 PM PDT
Moon 6:21 AM PDT (4/29) 9:12 PM PDT (4/29)
Length of Visible Light 15h 35m
Length of Day
14h 26m
New Moon, 0% of the Moon is Illuminated
Apr 29
New Moon
May 6
First Quarter
May 14
Full
May 21
Last Quarter
May 28
New

Hourly Weather History & Observations

Time (PDT) Temp. Windchill Dew Point Humidity Pressure Visibility Wind Dir Wind Speed Gust Speed Precip Events Conditions
12:53 AM 46.0 °F - 42.1 °F 86% 30.39 in 10.0 mi Calm Calm - N/A   Overcast
1:53 AM 45.0 °F - 39.9 °F 82% 30.39 in 10.0 mi Calm Calm - N/A   Partly Cloudy
2:53 AM 43.0 °F - 39.0 °F 86% 30.41 in 10.0 mi Calm Calm - N/A   Clear
3:53 AM 44.1 °F 42.5 °F 39.9 °F 85% 30.43 in 10.0 mi SW 3.5 mph - N/A   Mostly Cloudy
4:53 AM 45.0 °F - 41.0 °F 86% 30.44 in 10.0 mi Calm Calm - N/A   Overcast
5:53 AM 44.6 °F - 41.0 °F 87% 30.44 in 10.0 mi Calm Calm - N/A   Overcast
6:53 AM 46.9 °F - 43.0 °F 86% 30.47 in 10.0 mi Calm Calm - N/A   Overcast
7:53 AM 50.0 °F - 44.6 °F 82% 30.48 in 10.0 mi Calm Calm - N/A   Overcast
8:53 AM 50.0 °F - 44.1 °F 80% 30.51 in 10.0 mi Variable 4.6 mph - N/A   Overcast
9:53 AM 53.1 °F - 43.0 °F 69% 30.51 in 10.0 mi Variable 5.8 mph - N/A   Partly Cloudy
10:53 AM 53.1 °F - 43.0 °F 69% 30.52 in 10.0 mi Variable 5.8 mph - N/A   Clear
11:53 AM 55.0 °F - 42.1 °F 62% 30.52 in 10.0 mi Variable 6.9 mph - N/A   Clear
12:53 PM 55.0 °F - 42.1 °F 62% 30.51 in 10.0 mi NNE 5.8 mph - N/A   Clear
1:53 PM 55.4 °F - 42.8 °F 63% 30.49 in 10.0 mi Variable 5.8 mph - N/A   Clear
2:53 PM 59.0 °F - 42.8 °F 55% 30.48 in 10.0 mi Variable 4.6 mph - N/A   Clear
3:53 PM 60.1 °F - 39.9 °F 47% 30.47 in 10.0 mi East 6.9 mph - N/A   Clear
4:53 PM 63.0 °F - 39.9 °F 43% 30.45 in 10.0 mi ESE 8.1 mph - N/A   Clear
5:53 PM 63.0 °F - 39.0 °F 41% 30.44 in 10.0 mi East 6.9 mph - N/A   Clear
6:53 PM 63.0 °F - 39.0 °F 41% 30.42 in 10.0 mi ESE 6.9 mph - N/A   Clear
7:53 PM 59.0 °F - 39.9 °F 49% 30.41 in 10.0 mi ESE 6.9 mph - N/A   Clear
8:53 PM 54.0 °F - 43.0 °F 66% 30.42 in 10.0 mi SSE 4.6 mph - N/A   Clear
9:53 PM 52.0 °F - 43.0 °F 71% 30.43 in 10.0 mi South 4.6 mph - N/A   Clear
10:53 PM 48.9 °F - 43.0 °F 80% 30.43 in 10.0 mi SSW 3.5 mph - N/A   Clear
11:53 PM 46.9 °F - 41.0 °F 80% 30.43 in 10.0 mi SW 5.8 mph - N/A   Clear